Overview Statistics Trail Chart Weather Telemetry Raw packets
 

This is the latest recevied weather packets stored in our database for station/object SV9TNF-57. If no packets are shown the sender has not sent any weather packets the latest 10 day(s).

<< 1 2 3 4 >>
Time Temp. Humidity Pressure Rain* Wind** Luminosity Snow
1788667381 24.44° C 74% 996.6 hPa 0 mm 0 m/s - -
1788667081 24.44° C 74% 996.4 hPa 0 mm 0 m/s - -
1788666781 25° C 74% 996.5 hPa 0 mm 0 m/s - -
1788666481 24.44° C 73% 996.4 hPa 0 mm 0 m/s - -
1788666181 24.44° C 71% 996.3 hPa 0 mm 0 m/s - -
1788665881 25° C 72% 996.3 hPa 0 mm 0 m/s - -
1788665581 25° C 71% 996.4 hPa 0 mm 0 m/s - -
1788665281 25° C 69% 996.2 hPa 0 mm 0 m/s - -
1788664980 25° C 65% 996.2 hPa 0 mm 0 m/s - -
1788664680 24.44° C 59% 996.3 hPa 0 mm 0 m/s - -
1788664380 24.44° C 58% 996.4 hPa 0 mm 0 m/s - -
1788664080 24.44° C 64% 996.4 hPa 0 mm 0 m/s - -
1788663780 24.44° C 67% 996.3 hPa 0 mm 0 m/s - -
1788663480 24.44° C 67% 996.3 hPa 0 mm 0 m/s - -
1788663180 24.44° C 67% 996.4 hPa 0 mm 0 m/s - -
1788662887 24.44° C 68% 996.3 hPa 0 mm 0 m/s - -
1788662580 24.44° C 69% 996.4 hPa 0 mm 0 m/s - -
1788662279 23.89° C 69% 996.5 hPa 0 mm 0 m/s - -
1788661979 23.89° C 70% 996.5 hPa 0 mm 0 m/s - -
1788661679 23.89° C 71% 996.3 hPa 0 mm 0 m/s - -
1788661381 23.89° C 72% 996.4 hPa 0 mm 0 m/s - -
1788661079 23.89° C 72% 996.6 hPa 0 mm 0 m/s - -
1788660779 23.89° C 73% 996.4 hPa 0 mm 0 m/s - -
1788660479 24.44° C 73% 996.5 hPa 0 mm 0 m/s - -
1788660179 23.89° C 73% 996.6 hPa 0 mm 0 m/s - -

* Rain latest hour (hover to see other rain measurements)
** Current wind speed in m/s (hover to see current wind gust speed)